SCP
0 0 0 0 0 0 0 0 0 0 0 0 0 0 0 0 0 0 0 0 0 0 0 0 0 0 0 0 0 0 0 0 0 0 0 0 0 0 0 0 0 0 0
0 0 0 0 0 0 0 0 0 0 0 0 0 0 0 0 0 0 0 0 0 0 0 0 0 0 0 0 0 0 0 0 0 0 0 0 0 0 0 0 0 0 0
0 0 0 0 0 0 0 0 0 0 0 0 0 0 0 0 0 0 0 0 0 0 0 0 0 0 0 0 0 0 0 0 0 0 0 0 0 0 0 0 0 0 0
0 0 0 0 0 0 0 0 0 0 0 0 0 0 0 0 0 0 0 0 0 0 0 0 0 0 0 0 0 0 0 0 0 0 0 0 0 0 0 0 0 0 0
0 0 0 0 0 0 0 0 0 0 0 0 0 0 0 0 0 0 0 0 0 0 0 0 0 0 0 0 0 0 0 0 0 0 0 0 0 0 0 0 0 0 0
0 0 0 0 0 0 0 0 0 0 0 0 0 0 0 0 0 0 0 0 0 0 0 0 0 0 0 0 0 0 0 0 0 0 0 0 0 0 0 0 0 0 0
0 0 0 0 0 0 0 0 0 0 0 0 0 0 0 0 0 0 0 0 0 0 0 0 0 0 0 0 0 0 0 0 0 0 0 0 0 0 0 0 0 0 0
0 0 0 0 0 0 0 0 0 0 0 0 0 0 0 0 0 0 0 0 0 0 0 0 0 0 0 0 0 0 0 0 0 0 0 0 0 0 0 0 0 0 0
0 0 0 0 0 0 0 0 0 0 0 0 0 0 0 0 0 0 0 0 0 0 0 0 0 0 0 0 0 0 0 0 0 0 0 0 0 0 0 0 0 0 0
0 0 0 0 0 0 0 0 0 0 0 0 0 0 0 0 0 0 0 0 0 0 0 0 0 0 0 0 0 0 0 0 0 0 0 0 0 0 0 0 0 0 0
0 0 0 0 0 0 0 0 0 0 0 0 0 0 0 0 0 0 0 0 0 0 0 0 0 0 0 0 0 0 0 0 0 0 0 0 0 0 0 0 0 0 0
0 0 0 0 0 0 0 0 0 0 0 0 0 0 0 0 0 0 0 0 0 0 0 0 0 0 0 0 0 0 0 0 0 0 0 0 0 0 0 0 0 0 0
0 0 0 0 0 0 0 0 0 0 0 0 0 0 0 0 0 0 0 0 0 0 0 0 0 0 0 0 0 0 0 0 0 0 0 0 0 0 0 0 0 0 0
0 0 0 0 0 0 0 0 0 0 0 0 0 0 0 0 0 0 0 0 0 0 0 0 0 0 0 0 0 0 0 0 0 0 0 0 0 0 0 0 0 0 0
0 0 0 0 0 0 0 0 0 0 0 0 0 0 0 0 0 0 0 0 0 0 0 0 0 0 0 0 0 0 0 0 0 0 0 0 0 0 0 0 0 0 0
0 0 0 0 0 0 0 0 0 0 0 0 0 0 0 0 0 0 0 0 0 0 0 0 0 0 0 0 0 0 0 0 0 0 0 0 0 0 0 0 0 0 0
0 0 0 0 0 0 0 0 0 0 0 0 0 0 0 0 0 0 0 0 0 0 0 0 0 0 0 0 0 0 0 0 0 0 0 0 0 0 0 0 0 0 0
0 0 0 0 0 0 0 0 0 0 0 0 0 0 0 0 0 0 0 0 0 0 0 0 0 0 0 0 0 0 0 0 0 0 0 0 0 0 0 0 0 0 0
0 0 0 0 0 0 0 0 0 0 0 0 0 0 0 0 0 0 0 0 0 0 0 0 0 0 0 0 0 0 0 0 0 0 0 0 0 0 0 0 0 0 0
0 0 0 0 0 0 0 0 0 0 0 0 0 0 0 0 0 0 0 0 0 0 0 0 0 0 0 0 0 0 0 0 0 0 0 0 0 0 0 0 0 0 0
0 0 0 0 0 0 0 0 0 0 0 0 0 0 0 0 0 0 0 0 0 0 0 0 0 0 0 0 0 0 0 0 0 0 0 0 0 0 0 0 0 0 0
0 0 0 0 0 0 0 0 0 0 0 0 0 0 0 0 0 0 0 0 0 0 0 0 0 0 0 0 0 0 0 0 0 0 0 0 0 0 0 0 0 0 0
0 0 0 0 0 0 0 0 0 0 0 0 0 0 0 0 0 0 0 0 0 0 0 0 0 0 0 0 0 0 0 0 0 0 0 0 0 0 0 0 0 0 0
0 0 0 0 0 0 0 0 0 0 0 0 0 0 0 0 0 0 0 0 0 0 0 0 0 0 0 0 0 0 0 0 0 0 0 0 0 0 0 0 0 0 0
0 0 0 0 0 0 0 0 0 0 0 0 0 0 0 0 0 0 0 0 0 0 0 0 0 0 0 0 0 0 0 0 0 0 0 0 0 0 0 0 0 0 0
0 0 0 0 0 0 0 0 0 0 0 0 0 0 0 0 0 0 0 0 0 0 0 0 0 0 0 0 0 0 0 0 0 0 0 0 0 0 0 0 0 0 0
Wind_Speed
6 6 5 5 6 5 5 5 5 5 4 4 3 3 3 2 2 2 2 8 10 10 11 12 12 13 13 14 14 15 16 16 17 17 18 18 19 19 19 20 20 21 21
7 6 6 6 6 5 5 5 5 4 4 3 4 4 4 4 3 3 3 5 10 11 12 12 12 13 13 14 15 15 16 17 18 18 18 19 19 19 20 20 20 21 21
9 8 7 6 6 6 6 5 5 3 3 4 4 5 4 4 4 4 4 3 4 9 13 13 13 13 14 15 16 16 17 18 18 19 19 20 20 20 20 21 21 21 22
10 9 7 7 7 6 5 5 4 4 4 4 4 4 4 4 5 5 5 4 4 4 8 13 14 15 15 16 17 18 18 19 19 20 20 21 21 21 22 22 22 22 22
12 9 8 7 8 6 6 7 6 5 5 5 5 5 4 4 5 6 6 6 6 5 5 10 16 16 17 17 18 19 19 20 21 21 21 22 22 22 23 23 23 23 23
13 10 8 9 9 7 7 7 7 6 5 4 5 5 5 5 5 6 7 6 5 7 6 7 6 10 17 18 19 20 20 21 22 22 22 23 23 23 24 24 24 24 25
14 12 9 10 10 10 10 10 7 7 6 4 2 3 5 7 9 7 6 6 6 7 7 7 5 5 6 17 20 20 21 22 23 23 23 23 24 24 25 25 25 25 26
15 14 13 11 11 9 11 12 9 7 6 7 5 3 4 4 8 10 7 7 7 6 7 9 7 7 6 5 12 22 22 23 24 24 24 24 24 25 25 26 26 26 26
15 14 16 12 12 12 12 14 12 13 10 9 7 7 6 7 3 3 7 8 7 6 6 6 8 8 9 7 8 17 23 24 24 24 25 25 25 26 26 26 27 27 27
14 16 15 16 14 12 13 14 14 11 10 8 7 7 5 5 5 3 3 6 8 8 8 8 8 8 9 7 11 19 24 24 25 25 25 25 26 27 27 28 28 28 28
14 15 16 15 16 13 14 13 14 13 12 11 8 6 6 5 4 5 5 4 5 6 7 8 7 7 9 8 8 15 24 25 26 26 26 26 27 27 28 28 29 29 29
11 15 15 15 15 14 14 14 12 14 13 13 10 8 8 7 9 8 9 7 5 5 7 7 7 7 7 7 12 22 24 25 25 26 26 26 27 28 28 29 29 30 30
10 13 15 15 14 14 12 11 13 13 14 14 14 11 10 9 5 8 8 7 7 5 5 5 7 7 8 7 9 23 23 25 25 25 26 27 28 28 29 30 30 31 31
10 11 15 16 16 15 15 13 13 14 12 15 16 14 10 10 8 8 8 6 5 5 7 7 5 7 7 6 11 21 13 23 25 26 27 28 28 29 30 30 31 32 32
8 11 14 16 16 16 16 15 14 16 14 14 15 15 12 9 8 8 7 8 7 6 8 7 6 6 6 5 12 8 7 19 25 27 28 29 29 30 31 31 32 33 33
10 10 11 13 15 16 16 16 14 13 15 14 11 13 14 10 8 8 9 8 9 9 7 6 7 4 4 7 14 10 8 23 27 28 29 29 30 30 31 32 32 33 34
11 12 11 12 14 15 15 16 16 14 16 15 14 15 16 13 10 9 8 8 9 9 11 7 6 6 8 9 9 8 9 9 11 26 29 30 30 31 31 32 33 34 34
11 11 11 12 13 14 15 17 18 17 18 18 17 16 16 13 15 11 10 11 11 11 10 11 7 7 9 8 8 10 11 12 9 22 29 30 31 31 32 32 33 34 34
10 10 11 13 13 13 14 16 17 17 18 17 16 17 16 15 16 14 13 12 11 11 10 10 9 7 8 8 8 10 12 10 12 17 24 26 28 30 31 32 33 34 34
9 10 11 12 12 12 13 14 14 15 15 15 15 16 16 18 17 16 14 14 12 11 10 9 9 8 9 8 8 9 10 8 10 11 16 19 25 30 31 33 33 34 34
9 9 10 11 10 10 11 12 13 14 14 14 15 16 17 21 24 20 15 13 12 11 10 10 10 9 10 8 9 7 10 8 8 9 9 11 12 11 13 22 28 32 34
9 9 10 11 11 11 19 26 19 13 14 15 15 15 16 23 28 34 32 28 22 15 13 12 11 11 12 10 8 8 8 9 11 5 8 11 9 11 10 9 23 32 33
9 10 11 11 13 15 24 26 28 16 14 15 15 14 14 16 24 17 24 32 29 31 27 16 14 14 13 10 8 10 10 11 14 8 8 14 9 12 11 14 28 32 33
9 9 10 11 12 15 23 25 26 18 13 15 16 15 15 14 16 17 15 16 15 16 18 14 12 12 11 9 9 10 12 13 13 9 8 14 11 12 12 10 23 31 33
9 9 9 10 11 13 20 23 24 10 11 14 14 15 16 15 23 29 19 16 16 15 21 26 25 22 25 26 20 11 10 10 13 9 5 9 12 13 12 11 15 28 30
9 8 9 9 10 10 17 22 22 8 10 10 11 14 24 23 25 29 19 15 17 14 11 11 15 18 16 16 23 12 8 10 12 11 5 6 8 9 12 8 8 8 12
Wind_Direction
180 183 189 184 187 185 185 202 214 208 205 217 221 227 241 256 257 260 277 294 301 307 310 314 317 318 319 320 320 322 323 323 323 323 324 324 324 324 323 322 322 321 321
182 186 190 189 191 190 186 193 206 205 206 206 222 232 233 240 241 246 241 275 289 293 296 299 303 306 308 309 311 312 314 315 315 316 316 317 317 317 316 316 316 315 315
185 187 191 190 192 188 188 193 209 201 210 213 219 231 230 229 236 248 249 234 254 276 283 286 289 293 296 299 302 304 306 307 308 309 310 310 311 311 311 310 310 310 309
189 188 192 193 187 184 185 188 197 192 209 212 219 227 221 216 228 239 240 233 225 240 266 275 281 284 287 291 294 297 299 301 302 302 304 305 306 306 306 306 305 305 304
195 193 195 192 184 185 188 196 196 193 201 208 214 220 219 221 227 237 234 230 224 221 221 258 270 277 281 284 287 289 292 295 296 298 299 301 302 303 303 303 302 301 300
197 197 196 195 187 187 192 195 196 196 199 198 216 226 222 223 224 228 232 232 224 222 222 230 246 267 273 278 281 284 287 289 292 294 295 297 298 299 299 299 298 298 296
197 199 201 198 196 197 197 194 189 196 201 181 189 261 256 233 230 227 220 219 223 222 219 220 218 222 253 267 275 280 283 286 288 290 291 293 294 295 295 295 295 294 294
198 202 204 202 200 199 200 199 192 190 195 182 170 182 261 266 231 224 208 211 217 215 219 225 220 221 224 230 255 268 275 280 284 286 288 290 291 291 292 292 292 291 291
202 203 205 204 204 203 207 204 196 193 199 195 183 169 188 224 245 224 212 212 212 212 217 220 225 226 227 226 236 258 268 274 278 281 284 286 288 288 289 290 289 289 289
208 206 205 207 208 208 210 209 204 200 190 195 201 207 196 169 177 244 256 222 215 216 218 228 234 228 226 224 235 249 260 267 272 276 280 284 287 288 290 290 290 290 290
215 212 209 209 212 212 212 208 207 204 203 200 193 182 208 217 188 185 239 240 227 220 218 222 227 228 226 223 226 245 258 264 268 273 278 283 286 288 290 290 291 291 290
217 216 213 213 215 216 214 211 210 210 209 209 206 193 179 183 196 196 215 221 228 229 223 222 225 226 225 225 237 253 259 264 268 272 277 281 284 286 288 289 289 289 288
220 217 215 218 219 218 215 210 212 215 212 210 212 213 208 204 177 182 198 209 221 227 228 229 228 228 236 229 238 254 260 266 269 273 277 280 282 283 284 285 286 287 287
225 212 212 217 218 216 216 213 216 218 215 217 217 216 216 212 204 195 192 188 213 229 226 232 233 227 232 227 238 255 258 265 271 275 278 279 280 281 281 282 283 284 284
229 215 211 213 215 215 215 213 220 219 217 218 218 216 218 215 210 207 201 193 194 218 229 217 226 228 224 225 251 256 243 262 270 273 275 277 278 280 281 281 282 282 282
232 225 218 214 213 214 214 216 221 219 218 219 215 216 218 215 213 210 209 207 207 215 230 214 220 227 244 259 264 262 252 268 271 275 278 279 279 279 280 281 281 281 280
231 231 226 220 216 215 213 217 221 215 220 221 217 217 218 211 212 212 210 209 213 215 237 236 228 241 244 249 260 260 259 258 262 271 274 276 277 278 279 280 280 280 280
234 233 230 227 224 219 214 216 221 218 219 220 217 216 217 212 213 211 212 215 217 218 228 241 238 240 243 246 249 255 263 263 256 267 272 274 276 278 280 281 281 281 281
240 235 230 231 229 223 218 219 220 220 220 220 217 216 215 211 214 213 212 215 219 223 225 236 243 241 247 249 253 258 258 260 262 268 273 275 278 280 281 281 282 282 282
247 241 236 234 231 225 222 221 220 221 221 219 217 216 213 213 215 213 215 217 218 222 225 233 241 244 249 247 245 254 261 253 259 266 272 274 277 281 282 283 283 283 283
257 249 244 242 234 228 226 222 220 221 220 220 218 217 216 216 219 217 217 216 216 220 224 230 238 244 247 244 243 246 258 261 258 258 266 268 272 270 272 277 280 281 280
262 255 248 246 242 238 242 239 232 224 223 223 223 220 221 226 228 227 226 224 218 218 223 226 232 237 243 241 244 248 258 269 274 241 252 265 263 270 269 263 274 277 277
262 256 251 246 246 246 248 249 245 233 223 225 224 221 223 225 226 227 234 235 232 228 224 221 231 237 242 242 244 254 257 261 268 265 270 277 269 272 270 274 280 281 281
267 262 257 251 249 250 253 253 250 243 230 225 223 220 221 222 221 220 223 230 237 240 239 236 234 241 245 246 241 251 262 269 269 262 253 275 278 276 278 273 280 281 282
273 268 263 257 254 255 256 256 252 239 235 230 223 220 221 221 225 227 223 223 231 238 245 244 243 247 251 255 255 257 260 269 277 272 235 263 280 285 282 277 276 279 280
273 272 269 260 256 255 257 258 254 238 235 234 226 222 225 223 226 229 224 219 226 229 227 237 247 255 258 261 266 261 257 267 275 280 243 248 276 291 290 268 259 271 279